[[{"header":{"parameterUnit":"m.s-1","parameterCategory":1,"la1":30.2991,"la2":30.254,"lo1":-89.0895,"lo2":-89.0444,"dy":0.0017,"dx":0.0017,"nx":28,"ny":28,"refTime":"2024-07-11T09:00:00:Z","depth":0,"parameterNumber":2,"parameterNumberName":"U-component_of_WINDS"},"data":[0,0,0,0,0,0,0,0,0,0,0,0,0,0,0,0,0,0,0,0,0,0,0,0,0,0,0,0,0,0,0,0,0,0,0,0,0,0,0,0,0,0,0,0,0,0,0,0,0,0,0,0,0,0,0,0,0,0,2.5672,2.5673,0,2.5768,2.5769,2.577,2.5739,2.5737,2.5735,2.5733,2.5832,2.5836,2.5841,0,0,0,0,0,0,0,0,0,0,0,0,0,2.5462,2.5466,2.5672,2.5673,2.5675,2.5768,2.5769,2.577,2.5739,2.5737,2.5734,2.5732,2.583,2.5836,2.5841,0,0,0,0,0,0,0,0,0,0,0,0,0,2.5555,2.5468,2.5672,2.567,2.5671,2.5767,2.5769,2.5771,2.574,2.5736,2.5733,2.573,2.5829,2.5835,2.5842,2.5946,0,0,2.5863,2.5866,0,0,0,0,0,0,0,0,2.555,2.5563,2.5669,2.567,2.5671,2.5738,2.5731,2.583,2.574,2.5714,2.5733,2.5729,2.5803,2.5812,2.5837,2.5951,2.5955,2.5863,2.5868,2.5871,2.5873,0,0,0,0,0,0,0,2.5544,2.5559,2.571,2.5671,2.5672,2.5665,2.5674,2.575,2.5775,2.5716,2.5714,2.5725,2.5803,2.583,2.5839,2.5957,2.5863,2.5869,2.5874,2.5876,2.616,2.6164,0,0,0,0,0,0,2.5537,2.5554,2.5707,2.5713,2.5602,2.5671,2.5682,2.572,2.5774,2.5779,2.5728,2.5723,2.582,2.5831,2.5842,2.5967,2.5871,2.5877,2.5881,2.6157,2.6161,2.6165,0,0,0,0,0,0,2.5532,2.5551,2.5703,2.5633,2.5652,2.5678,2.5721,2.5723,2.575,2.5783,2.5787,2.5751,2.5818,2.5833,2.592,2.597,2.588,2.5886,2.6153,2.6158,2.6163,2.6218,0,0,0,0,0,0,2.5526,2.5549,2.5589,2.5634,2.5655,2.578,2.5724,2.5728,2.5762,2.5757,2.5806,2.5811,2.5817,2.591,2.5927,2.5978,2.5892,2.6149,2.6155,2.6161,2.6212,2.6225,2.6236,0,0,0,0,0,2.5519,2.5601,2.5591,2.561,2.5706,2.5783,2.5795,2.58,2.5766,2.5807,2.5827,2.5809,2.5962,2.592,2.5938,2.5992,2.6145,2.6153,2.6161,2.6207,2.6222,2.6235,0,0,0,0,0,0,2.5563,2.5607,2.5597,2.5696,2.5736,2.5777,2.5828,2.5816,2.5867,2.586,2.5864,2.5875,2.5965,2.5988,2.5939,2.6095,2.6049,2.6061,2.6077,2.6092,2.6104,2.6096,2.5897,0,0,0,0,0,2.5584,2.5642,2.5678,2.5762,2.5783,2.5802,2.5836,2.5836,2.5877,2.5894,2.5921,2.5963,2.602,2.6057,2.6112,2.6215,2.6225,2.6261,2.6273,2.6283,2.6293,2.6348,2.6364,2.619,2.619,2.619,0,0,2.5628,2.566,2.5696,2.5772,2.5803,2.5863,2.5817,2.5882,2.5927,2.5904,2.5988,2.601,2.6056,2.6152,2.6195,2.6173,2.6343,2.6292,2.63,2.6305,2.6358,2.6374,2.6389,2.6195,2.6194,2.6194,0,0,2.5739,2.577,2.5842,2.5874,2.5921,2.5933,2.595,2.5994,2.6007,2.6091,2.6075,2.6128,2.6227,2.626,2.629,2.6413,2.6398,2.6431,2.6492,2.6546,2.6559,2.6571,2.6614,2.663,2.6441,2.6441,2.6441,0,2.5789,2.5878,2.5882,2.5949,2.5982,2.5963,2.6037,2.6068,2.613,2.6154,2.6128,2.625,2.628,2.6383,2.6413,2.6438,2.6458,2.6425,2.6557,2.6569,2.6581,2.6622,2.6638,2.6445,2.6444,2.6444,2.6444,0,2.5936,2.5999,2.6052,2.6112,2.6151,2.6222,2.6235,2.6275,2.6271,2.6286,2.6372,2.6407,2.6468,2.6492,2.649,2.6595,2.6579,2.6555,2.6509,2.6601,2.6639,2.6655,2.645,2.6449,2.6447,2.6447,0,0,2.6078,2.6138,2.6158,2.6184,2.6234,2.6282,2.6351,2.641,2.6443,2.6487,2.6545,2.6628,2.6606,2.664,2.6641,2.6689,2.6783,2.6659,2.666,2.668,2.6899,2.6916,2.6934,2.6773,2.6776,2.6778,2.6895,0,2.6193,2.6314,2.6318,2.6428,2.6485,2.6468,2.6528,2.6565,2.6581,2.6632,2.6649,2.6708,2.6675,2.6695,2.6741,2.6761,2.6827,2.6753,2.6826,2.6829,2.6814,2.6955,2.6973,2.7081,2.691,2.6913,2.6914,0,2.6343,2.639,2.6506,2.6547,2.6571,2.6625,2.6678,2.6727,2.6769,2.6777,2.6814,2.6808,2.6879,2.683,2.6926,2.6876,2.6907,2.6921,2.6925,2.6932,2.6877,2.6964,2.7116,2.7132,2.6938,2.6936,2.6935,0,2.6434,2.6527,2.6607,2.6631,2.668,2.6718,2.6741,2.6779,2.6814,2.6861,2.6883,2.6938,2.6969,2.7011,2.702,2.6984,2.7117,2.7069,2.7125,2.7125,2.7153,2.7151,2.7312,2.7174,2.7174,2.7174,2.7173,0,2.6561,2.6633,2.6649,2.6698,2.6777,2.6782,2.686,2.688,2.6914,2.6967,2.6956,2.7006,2.7015,2.7067,2.7075,2.7153,2.7167,2.7175,2.7176,2.7176,2.7175,2.7195,2.7188,2.7178,2.7177,2.7176,2.7175,0,2.6676,2.669,2.6777,2.6816,2.6828,2.6884,2.6918,2.6965,2.6979,2.7047,2.7063,2.7085,2.7146,2.7159,2.7231,2.7236,2.7329,2.7323,2.7315,2.7314,2.7369,2.7363,2.7548,2.7571,2.7419,2.7421,2.7422,0,2.6757,2.6811,2.6855,2.689,2.6914,2.697,2.7005,2.7011,2.7048,2.7098,2.714,2.7199,2.7246,2.7344,2.7367,2.7422,2.7417,2.7478,2.7425,2.7423,2.7417,2.7413,2.7418,2.7487,2.7489,2.749,2.7492,0,2.6897,2.6901,2.6951,2.7004,2.7046,2.7088,2.7128,2.7157,2.7169,2.7211,2.7272,2.7309,2.7382,2.7441,2.7496,2.7519,2.7507,2.7508,2.7524,2.7523,2.7516,2.752,2.7341,2.7504,2.7502,2.7501,2.7501,2.75,2.6997,2.7043,2.7082,2.7138,2.7169,2.7206,2.7252,2.7271,2.7323,2.7382,2.7383,2.745,2.7489,2.7561,2.7588,2.764,2.7621,2.7644,2.765,2.7655,2.766,2.7508,2.765,2.765,2.765,2.7649,2.7649,0,2.7136,2.7159,2.7211,2.7267,2.7311,2.7295,2.7339,2.7377,2.7436,2.7473,2.752,2.759,2.7646,2.7673,2.7729,2.7766,2.7762,2.778,2.7777,2.7783,2.7674,2.7654,2.7783,2.7783,2.7782,2.7782,2.7782,2.7782,2.7213,2.7291,2.73,2.7392,2.7415,2.748,2.7506,2.754,2.757,2.7648,2.7695,2.7712,2.7745,2.7803,2.7854,2.7861,2.7881,2.7902,2.7906,2.7804,2.7791,2.7778,2.7759,2.7907,2.7907,2.801,2.8011,2.8012]},{"header":{"parameterUnit":"m.s-1","parameterCategory":1,"la1":30.2991,"la2":30.254,"lo1":-89.0895,"lo2":-89.0444,"dy":0.0017,"dx":0.0017,"nx":28,"ny":28,"refTime":"2024-07-11T09:00:00:Z","depth":0,"parameterNumber":3,"parameterNumberName":"V-component_of_WINDS"},"data":[0,0,0,0,0,0,0,0,0,0,0,0,0,0,0,0,0,0,0,0,0,0,0,0,0,0,0,0,0,0,0,0,0,0,0,0,0,0,0,0,0,0,0,0,0,0,0,0,0,0,0,0,0,0,0,0,0,0,-0.5712,-0.5712,0,-0.5782,-0.5783,-0.5784,-0.5814,-0.5813,-0.5813,-0.5813,-0.5887,-0.5889,-0.5891,0,0,0,0,0,0,0,0,0,0,0,0,0,-0.5605,-0.5606,-0.5712,-0.5712,-0.5713,-0.5782,-0.5783,-0.5784,-0.5814,-0.5813,-0.5813,-0.5813,-0.5886,-0.5889,-0.5891,0,0,0,0,0,0,0,0,0,0,0,0,0,-0.5661,-0.5607,-0.5711,-0.5736,-0.5739,-0.5782,-0.5783,-0.5784,-0.5814,-0.5813,-0.5813,-0.5813,-0.5885,-0.5888,-0.5892,-0.5915,0,0,-0.5901,-0.5903,0,0,0,0,0,0,0,0,-0.5658,-0.5665,-0.5732,-0.5735,-0.5738,-0.5789,-0.5772,-0.5828,-0.5814,-0.5785,-0.5813,-0.5813,-0.5855,-0.586,-0.5874,-0.5919,-0.5922,-0.5901,-0.5903,-0.5905,-0.5906,0,0,0,0,0,0,0,-0.5654,-0.5662,-0.574,-0.5733,-0.5737,-0.5745,-0.5752,-0.5783,-0.582,-0.5788,-0.579,-0.5798,-0.5856,-0.5871,-0.5876,-0.5923,-0.5901,-0.5904,-0.5906,-0.5907,-0.5991,-0.5992,0,0,0,0,0,0,-0.5645,-0.5658,-0.5737,-0.5742,-0.5696,-0.5747,-0.5755,-0.5773,-0.582,-0.5827,-0.5798,-0.5799,-0.5866,-0.5872,-0.5879,-0.591,-0.5905,-0.5908,-0.5909,-0.5991,-0.5991,-0.5992,0,0,0,0,0,0,-0.5643,-0.5652,-0.5734,-0.5701,-0.5712,-0.5749,-0.5768,-0.5774,-0.5789,-0.5828,-0.5835,-0.5806,-0.5866,-0.5874,-0.5906,-0.5913,-0.5909,-0.5912,-0.5991,-0.5991,-0.5992,-0.5972,0,0,0,0,0,0,-0.564,-0.5651,-0.566,-0.5701,-0.5713,-0.576,-0.5768,-0.5776,-0.5794,-0.5796,-0.5837,-0.5844,-0.5866,-0.5901,-0.5909,-0.5917,-0.5914,-0.599,-0.5991,-0.5991,-0.5972,-0.5971,-0.5971,0,0,0,0,0,-0.5636,-0.5651,-0.566,-0.5669,-0.5725,-0.576,-0.5767,-0.5792,-0.5794,-0.5804,-0.5829,-0.5842,-0.5911,-0.5904,-0.5913,-0.5922,-0.599,-0.5991,-0.5991,-0.5972,-0.5972,-0.5971,0,0,0,0,0,0,-0.5611,-0.5657,-0.5667,-0.5696,-0.5724,-0.5765,-0.5778,-0.5791,-0.5819,-0.582,-0.585,-0.5859,-0.5889,-0.5909,-0.59,-0.5948,-0.5951,-0.5954,-0.5934,-0.5933,-0.5933,-0.5928,-0.5917,0,0,0,0,0,-0.5609,-0.5633,-0.5672,-0.5694,-0.5707,-0.574,-0.5756,-0.5773,-0.5803,-0.5815,-0.5843,-0.5872,-0.59,-0.5918,-0.5946,-0.5975,-0.5985,-0.5986,-0.5986,-0.5985,-0.5987,-0.6005,-0.6006,-0.5994,-0.5994,-0.5994,0,0,-0.5604,-0.5633,-0.5646,-0.569,-0.5713,-0.5738,-0.575,-0.5775,-0.5794,-0.5819,-0.5851,-0.5872,-0.5907,-0.5938,-0.5952,-0.5955,-0.5992,-0.5986,-0.5985,-0.5988,-0.6006,-0.6007,-0.6008,-0.5995,-0.5995,-0.5995,0,0,-0.5609,-0.5633,-0.5654,-0.5678,-0.5713,-0.5734,-0.5739,-0.5779,-0.5794,-0.5826,-0.5845,-0.5869,-0.5916,-0.5941,-0.5959,-0.5974,-0.5988,-0.5983,-0.598,-0.5997,-0.5998,-0.5999,-0.6005,-0.6007,-0.5984,-0.5984,-0.5984,0,-0.56,-0.5637,-0.5664,-0.5688,-0.5707,-0.5731,-0.5753,-0.5775,-0.5817,-0.583,-0.5833,-0.5894,-0.5919,-0.5955,-0.5959,-0.5973,-0.5981,-0.5978,-0.5996,-0.5997,-0.5998,-0.6004,-0.6006,-0.5984,-0.5984,-0.5984,-0.5984,0,-0.5624,-0.565,-0.5663,-0.5703,-0.5724,-0.5747,-0.5778,-0.5796,-0.5811,-0.5833,-0.5866,-0.5897,-0.5932,-0.5942,-0.5957,-0.5981,-0.5982,-0.599,-0.5994,-0.5998,-0.6004,-0.6007,-0.5982,-0.5983,-0.5983,-0.5983,0,0,-0.5615,-0.567,-0.5674,-0.5693,-0.5734,-0.5755,-0.578,-0.5813,-0.5828,-0.5857,-0.5879,-0.592,-0.5927,-0.5948,-0.5967,-0.5982,-0.5992,-0.5988,-0.5989,-0.5988,-0.6021,-0.6015,-0.6017,-0.6002,-0.6002,-0.6003,-0.6019,0,-0.5626,-0.567,-0.5695,-0.573,-0.5754,-0.5778,-0.58,-0.5827,-0.5849,-0.5873,-0.5897,-0.5925,-0.5933,-0.5946,-0.5962,-0.5988,-0.5999,-0.5987,-0.6023,-0.6024,-0.6013,-0.602,-0.6014,-0.6027,-0.6021,-0.6022,-0.6022,0,-0.5644,-0.5672,-0.5709,-0.5748,-0.5759,-0.5778,-0.5811,-0.5835,-0.5867,-0.5882,-0.5905,-0.5924,-0.5952,-0.5954,-0.5994,-0.5984,-0.6001,-0.6016,-0.6017,-0.6022,-0.6023,-0.6025,-0.6032,-0.6034,-0.6026,-0.6025,-0.6025,0,-0.5634,-0.5681,-0.5709,-0.5725,-0.5771,-0.5783,-0.5803,-0.5836,-0.5855,-0.5884,-0.5897,-0.593,-0.5947,-0.5973,-0.6,-0.5999,-0.6037,-0.6041,-0.605,-0.605,-0.6057,-0.6056,-0.6067,-0.6068,-0.6068,-0.6068,-0.6068,0,-0.5643,-0.5665,-0.5705,-0.5723,-0.5748,-0.5777,-0.5802,-0.5823,-0.5852,-0.5875,-0.5897,-0.5918,-0.5953,-0.5979,-0.6,-0.603,-0.6038,-0.6051,-0.6057,-0.6049,-0.6047,-0.606,-0.606,-0.6068,-0.6068,-0.6068,-0.6068,0,-0.5636,-0.5664,-0.5696,-0.5737,-0.5748,-0.5765,-0.58,-0.5818,-0.5841,-0.587,-0.5878,-0.5914,-0.5945,-0.5975,-0.6017,-0.6032,-0.6062,-0.6069,-0.605,-0.6053,-0.6061,-0.606,-0.608,-0.6084,-0.6082,-0.6082,-0.6082,0,-0.564,-0.5657,-0.57,-0.5716,-0.5735,-0.5762,-0.5781,-0.5811,-0.583,-0.5869,-0.5883,-0.5916,-0.5944,-0.5993,-0.6023,-0.6056,-0.6064,-0.6069,-0.6069,-0.6061,-0.6064,-0.6063,-0.6065,-0.6068,-0.6068,-0.6068,-0.6068,0,-0.5644,-0.5657,-0.5684,-0.5716,-0.5738,-0.5765,-0.5793,-0.5805,-0.584,-0.5861,-0.5893,-0.5914,-0.5958,-0.599,-0.6026,-0.6048,-0.6064,-0.6068,-0.6072,-0.6064,-0.6053,-0.6059,-0.6049,-0.6067,-0.6067,-0.6067,-0.6067,-0.6067,-0.5643,-0.5659,-0.5692,-0.5721,-0.5745,-0.577,-0.579,-0.5815,-0.5842,-0.5879,-0.5895,-0.5927,-0.5961,-0.6011,-0.6032,-0.6059,-0.6062,-0.6068,-0.6069,-0.607,-0.6069,-0.6048,-0.6065,-0.6065,-0.6065,-0.6066,-0.6066,0,-0.5649,-0.5671,-0.5697,-0.5735,-0.5758,-0.5771,-0.5802,-0.5821,-0.5849,-0.5879,-0.5906,-0.5943,-0.5975,-0.6008,-0.6042,-0.6057,-0.6065,-0.6065,-0.6064,-0.6069,-0.6063,-0.6057,-0.6058,-0.6058,-0.6058,-0.6058,-0.6058,-0.6058,-0.5654,-0.5683,-0.57,-0.5741,-0.5764,-0.5795,-0.5812,-0.5836,-0.586,-0.59,-0.5927,-0.5948,-0.5979,-0.6015,-0.6046,-0.6055,-0.6066,-0.6064,-0.6075,-0.6069,-0.6069,-0.607,-0.6064,-0.6066,-0.6066,-0.6079,-0.6079,-0.6079]}]]